NNS 30120

operational
NORAD ID: 2754 Int'l Des: 1967-034 Owner: NAVAIR Country: US
LEOCIRCULARRETROGRADE

Über NNS 30120

Beschreibung wird geladen...

Live-Position

3D-Globus wird geladen...

Nächste Überflüge

Höhenverlauf

Altitude vs Time

uPlot chart will show altitude changes over time

Zweizeiliger Elementsatz

1 02754U 67034A 25341.08145476 .00000212 00000-0 28377-3 0 9993
2 02754 90.2276 30.6525 0018984 354.1746 32.7482 13.57355156900058
Epoch: 7. Dez. 2025 • Age: 19 hours

Aktueller Status

Höhe 1061.1 km
Geschwindigkeit 7.32 km/s
Subsatellitenpunkt -62.42°S, 0.46°W
Typ other

Große Konstellationen

Loading constellations...